SWA323 KBNA-KLGA

Flight info

Callsign SWA323
Flight time N/A
Altitude 37000
Route CHADM4 MUNNY TONIO Q34 GVE PROUD2
Aircraft B738/M-SDE2E3FGHIRWXY/LB1

Departure

Time 2026-05-08 01:43
Airport Nashville International Airport (KBNA)

Arrival

Time N/A
Airport LaGuardia Airport (KLGA)
Time Latitude Longitude Altitude Speed Heading
2026-05-08 01:22 36.12750 -86.66895 568 ft 0 kts 330°
2026-05-08 01:34 36.12745 -86.66891 568 ft 3 kts 328°
2026-05-08 01:34 36.12728 -86.66876 571 ft 3 kts 313°
2026-05-08 01:34 36.12716 -86.66856 569 ft 3 kts 283°
2026-05-08 01:34 36.12716 -86.66835 571 ft 3 kts 230°
2026-05-08 01:35 36.12723 -86.66827 569 ft 1 kts 221°
2026-05-08 01:35 36.12723 -86.66826 569 ft 0 kts 221°
2026-05-08 01:37 36.12721 -86.66829 569 ft 4 kts 221°
2026-05-08 01:38 36.12664 -86.66893 574 ft 16 kts 232°
2026-05-08 01:38 36.12705 -86.67013 570 ft 16 kts 310°
2026-05-08 01:38 36.12778 -86.67120 568 ft 16 kts 310°
2026-05-08 01:38 36.12851 -86.67218 568 ft 15 kts 308°
2026-05-08 01:39 36.12809 -86.67321 574 ft 15 kts 224°
2026-05-08 01:39 36.12730 -86.67403 573 ft 15 kts 193°
2026-05-08 01:39 36.12647 -86.67341 579 ft 16 kts 134°
2026-05-08 01:39 36.12556 -86.67220 574 ft 24 kts 130°
2026-05-08 01:40 36.12425 -86.67053 576 ft 30 kts 131°
2026-05-08 01:40 36.12285 -86.66842 571 ft 32 kts 110°
2026-05-08 01:40 36.12215 -86.66577 573 ft 23 kts 121°
2026-05-08 01:40 36.12159 -86.66557 569 ft 7 kts 194°
2026-05-08 01:41 36.12087 -86.66585 573 ft 17 kts 198°
2026-05-08 01:41 36.11934 -86.66646 580 ft 29 kts 198°
2026-05-08 01:41 36.11731 -86.66728 585 ft 30 kts 198°
2026-05-08 01:41 36.11542 -86.66802 588 ft 28 kts 198°
2026-05-08 01:42 36.11415 -86.66853 591 ft 18 kts 198°
2026-05-08 01:42 36.11324 -86.66872 590 ft 12 kts 152°
2026-05-08 01:42 36.11301 -86.66775 590 ft 16 kts 56°
2026-05-08 01:42 36.11501 -86.66677 589 ft 67 kts 18°
2026-05-08 01:43 36.12246 -86.66377 583 ft 154 kts 17°
2026-05-08 01:43 36.13339 -86.65935 1416 ft 165 kts 16°
2026-05-08 01:43 36.14407 -86.65500 2535 ft 171 kts 21°
2026-05-08 01:43 36.15558 -86.64815 3034 ft 201 kts 35°
2026-05-08 01:44 36.16601 -86.63501 3406 ft 228 kts 48°
2026-05-08 01:44 36.17657 -86.61963 4042 ft 238 kts 48°
2026-05-08 01:44 36.18757 -86.60385 4816 ft 246 kts 47°
2026-05-08 01:44 36.19910 -86.58694 5382 ft 266 kts 54°
2026-05-08 01:45 36.20725 -86.56622 6421 ft 270 kts 69°
2026-05-08 01:45 36.21273 -86.54399 6840 ft 272 kts 74°
2026-05-08 01:45 36.21919 -86.52162 6994 ft 279 kts 66°
2026-05-08 01:45 36.22205 -86.49806 7125 ft 289 kts 99°
2026-05-08 01:46 36.21440 -86.47471 7926 ft 295 kts 116°
2026-05-08 01:46 36.20523 -86.45163 8872 ft 302 kts 115°
2026-05-08 01:46 36.19740 -86.42710 9702 ft 311 kts 98°
2026-05-08 01:46 36.19650 -86.40002 10424 ft 322 kts 86°
2026-05-08 01:47 36.19700 -86.37163 10831 ft 344 kts 86°
2026-05-08 01:47 36.19760 -86.34143 11461 ft 356 kts 86°
2026-05-08 01:47 36.19812 -86.31032 12230 ft 365 kts 87°
2026-05-08 01:48 36.19891 -86.24578 13758 ft 382 kts 88°
2026-05-08 01:48 36.19921 -86.21307 14802 ft 377 kts 88°
2026-05-08 01:48 36.19950 -86.18084 15617 ft 381 kts 88°
2026-05-08 01:48 36.19980 -86.14760 16290 ft 390 kts 88°
2026-05-08 01:49 36.20009 -86.11353 17007 ft 397 kts 88°
2026-05-08 01:49 36.20045 -86.07905 17766 ft 402 kts 86°
2026-05-08 01:49 36.20425 -86.04459 18490 ft 405 kts 73°
2026-05-08 01:49 36.21111 -86.01065 19148 ft 408 kts 71°
2026-05-08 01:50 36.21823 -85.97698 19798 ft 413 kts 71°
2026-05-08 01:50 36.22534 -85.94225 20433 ft 419 kts 72°
2026-05-08 01:50 36.23231 -85.90683 21064 ft 425 kts 73°
2026-05-08 01:50 36.23914 -85.87097 21695 ft 430 kts 73°
2026-05-08 01:51 36.24598 -85.83455 22330 ft 436 kts 73°
2026-05-08 01:51 36.25289 -85.79770 22960 ft 441 kts 73°
2026-05-08 01:51 36.26074 -85.76071 23576 ft 443 kts 68°
2026-05-08 01:51 36.27061 -85.72479 24068 ft 447 kts 65°
2026-05-08 01:52 36.28154 -85.68833 24492 ft 454 kts 64°
2026-05-08 01:52 36.29274 -85.65132 24898 ft 461 kts 64°
2026-05-08 01:52 36.30389 -85.61359 25349 ft 468 kts 65°
2026-05-08 01:52 36.31491 -85.57526 25788 ft 474 kts 65°
2026-05-08 01:53 36.32577 -85.53682 26222 ft 480 kts 65°
2026-05-08 01:53 36.33681 -85.49747 26644 ft 486 kts 65°
2026-05-08 01:53 36.34804 -85.45758 27062 ft 492 kts 65°